• Currently

    Reported at Minneapolis, Minneapolis-St. Paul International Airport, MN
    3:53 AM CST SUN MAR 26 2017
  • 37°F3°C
  • Drizzle
    Drizzle
  • Feels Like:33°F0°CDew Point:34°F1°CHumidity:87% Winds:E 7 mph 11 kph
    Pressure:29.94 in1014 hPaVisibility:7.00 miles11263.00 meters
Time Weather Temp Dew Point
Humidity Winds Visibility Pressure Precipitation
1 hr 24 hr
Friday, March 17
23:53 23:53 Cloudy Cloudy 35°F2°C 25°F-4°C 67% SE 10 mphSE 17 kph 10.0 miles16.1 km 29.91 in1013 hPa 0.00 in0.00 mm --
22:53 22:53 Cloudy Cloudy 35°F2°C 25°F-4°C 67% SE 14 mphSE 22 kph 10.0 miles16.1 km 29.94 in1014 hPa 0.00 in0.03 mm --
21:53 21:53 Cloudy Cloudy 35°F2°C 25°F-4°C 67% SSE 12 mphSSE 19 kph 10.0 miles16.1 km 29.97 in1015 hPa 0.00 in0.03 mm --
20:53 20:53 Cloudy With Light Drizzle Cloudy With Light Drizzle 36°F2°C 24°F-4°C 62% SSE 13 mphSSE 20 kph 10.0 miles16.1 km 30 in1016 hPa 0.00 in0.03 mm --
19:53 19:53 Cloudy Cloudy 36°F2°C 22°F-6°C 57% SE 22 mphSE 35 kph 10.0 miles16.1 km 29.97 in1015 hPa 0.00 in0.03 mm --
18:53 18:53 Cloudy With Light Drizzle Cloudy With Light Drizzle 37°F3°C 23°F-5°C 57% SE 18 mphSE 30 kph 10.0 miles16.1 km 30 in1016 hPa 0.00 in0.03 mm --
17:53 17:53 Cloudy Cloudy 38°F3°C 24°F-4°C 57% SE 17 mphSE 28 kph 10.0 miles16.1 km 30 in1016 hPa 0.00 in0.03 mm --
16:53 16:53 Cloudy With Light Rain Cloudy With Light Rain 38°F3°C 23°F-5°C 55% SE 21 mphSE 33 kph 10.0 miles16.1 km 30.03 in1017 hPa 0.00 in0.03 mm --
15:53 15:53 Cloudy Cloudy 39°F4°C 21°F-6°C 48% SE 20 mphSE 31 kph 10.0 miles16.1 km 30.03 in1017 hPa 0.00 in0.00 mm --
14:53 14:53 Mostly Cloudy Mostly Cloudy 40°F4°C 22°F-6°C 49% SSE 15 mphSSE 24 kph 10.0 miles16.1 km 30.06 in1018 hPa 0.00 in0.00 mm --
13:53 13:53 Mostly Cloudy Mostly Cloudy 39°F4°C 20°F-7°C 46% SSE 15 mphSSE 24 kph 10.0 miles16.1 km 30.09 in1019 hPa 0.00 in0.00 mm --
12:53 12:53 Partly Cloudy Partly Cloudy 38°F3°C 19°F-7°C 46% SSE 21 mphSSE 33 kph 10.0 miles16.1 km 30.12 in1020 hPa 0.00 in0.00 mm --
11:53 11:53 Partly Cloudy Partly Cloudy 36°F2°C 18°F-8°C 48% SSE 9 mphSSE 15 kph 10.0 miles16.1 km 30.15 in1021 hPa 0.00 in0.00 mm --
10:53 10:53 Mostly Sunny Mostly Sunny 32°F0°C 15°F-9°C 50% SE 12 mphSE 19 kph 10.0 miles16.1 km 30.15 in1021 hPa 0.00 in0.00 mm --
09:53 09:53 Mostly Sunny Mostly Sunny 27°F-3°C 13°F-11°C 55% SE 12 mphSE 19 kph 10.0 miles16.1 km 30.15 in1021 hPa 0.00 in0.00 mm --
08:53 08:53 Mostly Sunny Mostly Sunny 24°F-4°C 12°F-11°C 60% SSE 9 mphSSE 15 kph 10.0 miles16.1 km 30.18 in1022 hPa 0.00 in0.00 mm --
07:53 07:53 Mostly Sunny Mostly Sunny 22°F-6°C 12°F-11°C 66% SE 10 mphSE 17 kph 10.0 miles16.1 km 30.18 in1022 hPa 0.00 in0.00 mm --
06:53 06:53 Mostly Clear Mostly Clear 22°F-6°C 12°F-11°C 66% SE 7 mphSE 11 kph 10.0 miles16.1 km 30.18 in1022 hPa 0.00 in0.00 mm --
05:53 05:53 Mostly Cloudy Mostly Cloudy 22°F-6°C 13°F-11°C 68% SE 8 mphSE 13 kph 10.0 miles16.1 km 30.21 in1023 hPa 0.00 in0.00 mm --
04:53 04:53 Cloudy Cloudy 21°F-6°C 12°F-11°C 68% SE 6 mphSE 9 kph 10.0 miles16.1 km 30.21 in1023 hPa 0.00 in0.00 mm --
03:53 03:53 Mostly Cloudy Mostly Cloudy 20°F-7°C 12°F-11°C 71% SSE 3 mphSSE 6 kph 10.0 miles16.1 km 30.24 in1024 hPa 0.00 in0.00 mm --
02:53 02:53 Cloudy Cloudy 21°F-6°C 12°F-11°C 68% SE 7 mphSE 11 kph 10.0 miles16.1 km 30.24 in1024 hPa 0.00 in0.00 mm --
01:53 01:53 Partly Cloudy Partly Cloudy 21°F-6°C 11°F-12°C 65% SE 7 mphSE 11 kph 10.0 miles16.1 km 30.24 in1024 hPa 0.00 in0.00 mm --
00:53 00:53 Cloudy Cloudy 23°F-5°C 11°F-12°C 60% SE 6 mphSE 9 kph 10.0 miles16.1 km 30.27 in1025 hPa 0.00 in0.00 mm --